Location: Wiesbaden
(50.0830°N, 8.2500°E)
Time: 05:57:49
(UTC+02:00)

ISS - Pass Details

Date: 01 April 2020
Orbit: 417 x 423 km, 51.6° (Epoch: 29 March)

Event Time Altitude Azimuth Distance (km) Brightness Sun altitude
Rises 22:33:53 0° 283° (WNW) 2,362 1.1 -23.1°
Reaches altitude 10° 22:36:33 10° 261° (W) 1,495 -0.5 -23.4°
Enters shadow 22:37:46 15° 241° (WSW) 1,246 -1.2 -23.5°
